Printer-friendly version

IAU Minor Planet Center

Minor Planet Center

MPEC 2001-T07: S/2000 S 5, S/2000 S 9, S/2000 S 11

The following Minor Planet Electronic Circular may be linked-to from your own Web pages, but must not otherwise be redistributed electronically.


Read MPEC 2001-T06 Read MPEC 2001-T08


M.P.E.C. 2001-T07                                Issued 2001 Oct. 6, 14:19 UT

     The Minor Planet Electronic Circulars contain information on unusual
         minor planets and routine data on comets.  They are published
   on behalf of Commission 20 of the International Astronomical Union by the
          Minor Planet Center, Smithsonian Astrophysical Observatory,
                          Cambridge, MA 02138, U.S.A.

             Prepared using the Tamkin Foundation Computer Network

                              MPC@CFA.HARVARD.EDU
          URL http://cfa-www.harvard.edu/iau/mpc.html  ISSN 1523-6714

                      S/2000 S 5, S/2000 S 9, S/2000 S 11

                 Revision to MPEC 2000-Y13, 2000-Y14, 2000-Y15

Observations:
    SK00S050  C2001 08 21.12508 04 48 30.26 +20 40 37.8          22.1 R      493
    SK00S050  C2001 08 21.15028 04 48 30.63 +20 40 39.6                      493
    SK00S050  C2001 08 24.55224 04 49 23.68 +20 42 49.0                      568
    SK00S050  C2001 08 24.57220 04 49 23.98 +20 42 49.7                      568
    SK00S050  C2001 08 24.59261 04 49 24.32 +20 42 50.6                      568
    SK00S090  C2001 09 18.43091 04 57 58.73 +20 44 31.2          24.1 R      675
    SK00S090  C2001 09 18.45386 04 57 58.81 +20 44 31.2          23.5 R      675
    SK00S090  C2001 09 18.47747 04 57 58.91 +20 44 30.9          23.5 R      675
    SK00S090  C2001 09 19.38304 04 58 02.59 +20 44 28.4                      675
    SK00S090  C2001 09 19.43024 04 58 02.78 +20 44 28.6                      675
    SK00S110  C2001 08 20.13314 04 49 47.37 +20 23 48.5                      493
    SK00S110  C2001 08 20.16314 04 49 47.87 +20 23 49.6                      493
    SK00S110  C2001 08 24.53888 04 50 59.98 +20 26 00.6          21.1 R      568
    SK00S110  C2001 08 24.55885 04 51 00.31 +20 26 01.2          21.0 R      568
    SK00S110  C2001 08 24.57891 04 51 00.58 +20 26 01.5          21.3 R      568

Observer details:
493 Calar Alto.  Observers G. Bernabei, A. Campo Bagatin, J.-M. Petit.
    Measurer J.-M. Petit.  2.2-m reflector + CCD.
568 Mauna Kea.  Observer J. Kavalaars.  Measurer J.-M. Petit.  3.6-m
    Canada-France-Hawaii Telescope + CCD.
675 Palomar.  Observers P. Nicholson, C. Dumas, A. Harris.  Measurer
    B. Gladman.  5-m Hale reflector + CCD.

Orbital elements:
S/2000 S 5
Epoch 2001 Oct. 18.0 TT = JDT 2452200.5                 Marsden
M 336.24529              (2000.0)            P               Q
n   0.80071134     Peri.   91.25720     +0.07279153     -0.99165052
a   0.0756629      Node   351.81548     +0.30839329     +0.12387767
e   0.1658184      Incl.   48.39259     +0.94846980     +0.03582689
P   1.23           H   12.5           P/d   449.60
Residuals in seconds of arc
K0087  809  0.1+  0.1+    K00B3  695  0.1+  0.0     K00CG  695  0.3-  0.5+
K0087  809  0.3+  0.1-    K00B4  309  0.0   0.2-    K00CG  695  0.3-  0.5+
K0087  809  0.1+  0.2-    K00B4  309  0.0   0.1-    K00CI  695  0.1+  0.4-
K009O  568  0.2-  0.1+    K00BO  809  0.1+  0.1+    K00CI  695  0.1-  0.7-
K009O  568  0.4-  0.3+    K00BO  809  0.1-  0.0     K018L  493  0.3+  0.1-
K009O  568  0.4-  0.2+    K00BO  809  0.3+  0.1+    K018L  493  0.2-  0.7+
K00B2  695  0.1+  0.0     K00BS  675  0.1+  0.1-    K018O  568  0.3-  0.2-
K00B2  695  0.2+  0.2-    K00BS  675  0.1+  0.0     K018O  568  0.2-  0.3-
K00B2  695  0.4+  0.1+    K00BS  675  0.1+  0.0     K018O  568  0.4+  0.1-
K00B3  695  0.2+  0.1-    K00CG  695  0.1-  0.1+

S/2000 S 9
Epoch 2001 Oct. 18.0 TT = JDT 2452200.5                 Marsden
M 352.52507              (2000.0)            P               Q
n   0.38593448     Peri.  299.99185     -0.75174332     +0.63596805
a   0.1230811      Node    79.91956     +0.64946869     +0.66812939
e   0.2123419      Incl.  169.79520     +0.11433456     +0.38619653
P   2.55           H   14.5           P/d   932.80
Residuals in seconds of arc
K009N  568  0.2+  0.1+    K00B4  309  0.2+  0.1-    K011L  675 (1.8+  3.7-)
K009N  568  0.1-  0.0     K00BR  675  0.0   0.3-    K011L  675  0.1-  0.2-
K009N  568  0.0   0.0     K00BR  675  0.2-  0.1-    K019I  675  0.0   0.7+
K009O  568  0.1-  0.1+    K00BR  675  0.3+  0.2+    K019I  675  0.1-  0.7+
K009O  568  0.1-  0.1+    K00BR  675  0.2-  0.3+    K019I  675  0.0   0.4+
K009O  568  0.2-  0.1+    K00BR  675  0.2-  0.1-    K019J  675  0.1-  0.9-
K00B4  309  0.5+  0.1-    K00BR  675  0.1+  0.2-    K019J  675  0.2+  0.7-

S/2000 S 11
Epoch 2001 Oct. 18.0 TT = JDT 2452200.5                 Marsden
M 326.60233              (2000.0)            P               Q
n   0.45511712     Peri.   59.54919     -0.81253930     -0.09981737
a   0.1102685      Node   109.01069     +0.02666146     -0.99056219
e   0.4515501      Incl.   37.40368     +0.58229636     -0.09393105
P   2.17           H   11.4           P/d   791.01
Residuals in seconds of arc
K00B9  696  0.4-  0.1+    K00BP  809  0.2+  0.2+    K012I  950  0.4-  0.2+
K00B9  696  0.1-  0.1+    K00BP  809  0.1+  0.2+    K018K  493  1.0+  0.5+
K00B9  696  0.4-  0.1-    K00BP  809  0.1+  0.3+    K018K  493  0.8+  0.6+
K00BN  696  0.1+  0.2-    K00CG  695  0.7+  0.9-    K018O  568  0.6-  0.3-
K00BN  696  0.0   0.6+    K00CG  695  0.6+  0.8-    K018O  568  0.3-  0.3-
K00BO  809  0.0   0.3+    K00CG  695  0.7+  1.0-    K018O  568  0.8-  0.6-
K00BO  809  0.0   0.2+    K00CH  695  0.7-  0.4+
K00BO  809  0.1-  0.2+    K012I  950  0.3-  0.3+

Ephemerides:
    S/2000 S 5                                                   q = 0.0631
Date    TT    R. A. (2000) Decl.     Delta     r_S   dR.A. ("/m)  dDecl.m1"/')
2001 09 28    04 54.03   +20 56.6    8.715    0.067  1255-/1.49-   604+/ 10.1+
2001 10 08    04 53.80   +20 57.7    8.569    0.066  1064-/1.27-   784+/ 13.1+
2001 10 18    04 52.86   +20 57.4    8.437    0.065   830-/0.99-   945+/ 15.7+
2001 10 28    04 51.26   +20 55.7    8.322    0.064   560-/0.67-  1079+/ 18.0+
2001 11 07    04 49.07   +20 52.7    8.230    0.063   261-/0.31-  1180+/ 19.7+
2001 11 17    04 46.43   +20 48.3    8.163    0.063    53+/0.06+  1242+/ 20.7+
2001 11 27    04 43.46   +20 42.9    8.124    0.063   367+/0.44+  1262+/ 21.0+
2001 12 07    04 40.35   +20 36.6    8.115    0.064   668+/0.79+  1237+/ 20.6+
2001 12 17    04 37.27   +20 30.0    8.135    0.065   942+/1.12+  1171+/ 19.5+
2001 12 27    04 34.42   +20 23.4    8.186    0.066  1176+/1.39+  1066+/ 17.8+
2002 01 06    04 31.94   +20 17.3    8.264    0.067  1366+/1.62+   928+/ 15.5+
2002 01 16    04 29.99   +20 12.2    8.367    0.069  1507+/1.78+   765+/ 12.7+
2002 01 26    04 28.68   +20 08.5    8.491    0.070  1601+/1.89+   583+/  9.7+
2002 02 05    04 28.08   +20 06.3    8.631    0.072  1651+/1.95+   391+/  6.5+
2002 02 15    04 28.22   +20 05.9    8.783    0.074  1661+/1.97+   194+/  3.2+
2002 02 25    04 29.11   +20 07.4    8.941    0.076  1638+/1.94+     1-/  0.0
2002 03 07    04 30.73   +20 10.4    9.101    0.077  1586+/1.88+   191-/  3.2-
2002 03 17    04 33.03   +20 15.0    9.258    0.079  1511+/1.79+   371-/  6.2-
2002 03 27    04 35.97   +20 20.8    9.408    0.081  1417+/1.68+   540-/  9.0-
2002 04 06    04 39.47   +20 27.6    9.547    0.082  1307+/1.55+   696-/ 11.6-
2002 04 16    04 43.47   +20 35.1    9.672    0.083  1185+/1.41+   837-/ 13.9-
2002 04 26    04 47.89   +20 43.0    9.780    0.085  1052+/1.25+   962-/ 16.0-

    S/2000 S 9                                                   q = 0.0969
Date    TT    R. A. (2000) Decl.     Delta     r_S   dR.A. ("/m)  dDecl. ("/')
2001 09 28    04 58.29   +20 43.9    8.686    0.098  2331+/2.77+   158-/  2.6-
2001 10 08    04 57.84   +20 42.2    8.546    0.098  2335+/2.77+   145-/  2.4-
2001 10 18    04 56.60   +20 39.5    8.420    0.097  2317+/2.75+   127-/  2.1-
2001 10 28    04 54.62   +20 36.0    8.313    0.097  2277+/2.70+   104-/  1.7-
2001 11 07    04 52.01   +20 31.7    8.229    0.097  2214+/2.63+    77-/  1.3-
2001 11 17    04 48.89   +20 26.8    8.172    0.097  2129+/2.52+    47-/  0.8-
2001 11 27    04 45.42   +20 21.6    8.143    0.097  2022+/2.40+    15-/  0.2-
2001 12 07    04 41.80   +20 16.3    8.146    0.098  1895+/2.25+    17+/  0.3+
2001 12 17    04 38.23   +20 11.2    8.180    0.098  1750+/2.07+    47+/  0.8+
2001 12 27    04 34.90   +20 06.8    8.244    0.099  1587+/1.88+    74+/  1.2+
2002 01 06    04 31.99   +20 03.4    8.335    0.100  1408+/1.67+    98+/  1.6+
2002 01 16    04 29.65   +20 01.4    8.452    0.101  1217+/1.44+   116+/  1.9+
2002 01 26    04 27.99   +20 00.9    8.589    0.103  1014+/1.20+   129+/  2.2+
2002 02 05    04 27.08   +20 02.1    8.741    0.104   803+/0.95+   138+/  2.3+
2002 02 15    04 26.95   +20 05.1    8.904    0.106   585+/0.69+   143+/  2.4+
2002 02 25    04 27.60   +20 09.8    9.072    0.107   364+/0.43+   145+/  2.4+
2002 03 07    04 29.02   +20 16.0    9.241    0.109   140+/0.17+   145+/  2.4+
2002 03 17    04 31.14   +20 23.6    9.405    0.110    85-/0.10-   144+/  2.4+
2002 03 27    04 33.93   +20 32.2    9.560    0.112   308-/0.37-   143+/  2.4+
2002 04 06    04 37.30   +20 41.6    9.703    0.114   529-/0.63-   143+/  2.4+
2002 04 16    04 41.18   +20 51.5    9.830    0.116   746-/0.89-   145+/  2.4+
2002 04 26    04 45.50   +21 01.6    9.938    0.118   958-/1.14-   150+/  2.5+

    S/2000 S 11                                                  q = 0.0605
Date    TT    R. A. (2000) Decl.     Delta     r_S   dR.A. ("/m)  dDecl. ("/')
2001 09 28    04 55.86   +20 36.1    8.768    0.090   281+/0.33+   627-/ 10.4-
2001 10 08    04 55.61   +20 36.9    8.614    0.086   456+/0.54+   465-/  7.7-
2001 10 18    04 54.60   +20 36.8    8.474    0.081   636+/0.75+   289-/  4.8-
2001 10 28    04 52.89   +20 36.0    8.351    0.077   813+/0.96+   101-/  1.7-
2001 11 07    04 50.54   +20 34.6    8.250    0.073   977+/1.16+    97+/  1.6+
2001 11 17    04 47.69   +20 32.6    8.175    0.069  1116+/1.32+   297+/  5.0+
2001 11 27    04 44.47   +20 30.0    8.128    0.066  1218+/1.44+   493+/  8.2+
2001 12 07    04 41.06   +20 27.2    8.111    0.063  1270+/1.51+   673+/ 11.2+
2001 12 17    04 37.66   +20 24.2    8.125    0.061  1265+/1.50+   828+/ 13.8+
2001 12 27    04 34.44   +20 21.4    8.168    0.061  1199+/1.42+   946+/ 15.8+
2002 01 06    04 31.60   +20 18.9    8.240    0.061  1077+/1.28+  1022+/ 17.0+
2002 01 16    04 29.29   +20 17.0    8.338    0.062   908+/1.08+  1053+/ 17.6+
2002 01 26    04 27.63   +20 16.1    8.458    0.064   708+/0.84+  1042+/ 17.4+
2002 02 05    04 26.71   +20 16.4    8.595    0.067   492+/0.58+   996+/ 16.6+
2002 02 15    04 26.58   +20 18.1    8.745    0.070   273+/0.32+   921+/ 15.4+
2002 02 25    04 27.24   +20 21.2    8.902    0.074    60+/0.07+   828+/ 13.8+
2002 03 07    04 28.68   +20 25.6    9.061    0.078   140-/0.17-   722+/ 12.0+
2002 03 17    04 30.86   +20 31.3    9.218    0.083   323-/0.38-   610+/ 10.2+
2002 03 27    04 33.71   +20 38.1    9.368    0.087   490-/0.58-   496+/  8.3+
2002 04 06    04 37.16   +20 45.6    9.507    0.092   640-/0.76-   383+/  6.4+
2002 04 16    04 41.14   +20 53.6    9.632    0.096   775-/0.92-   272+/  4.5+
2002 04 26    04 45.57   +21 01.8    9.740    0.100   897-/1.07-   165+/  2.8+

Brian G. Marsden             (C) Copyright 2001 MPC           M.P.E.C. 2001-T07

Read MPEC 2001-T06 Read MPEC 2001-T08


Our Web policy. Index to the CBAT/MPC/ICQ pages.


Valid HTML 4.01!